Location: 相模原市立博物館
(35.5593°N, 139.3931°E)
Time: 13:51:36
(UTC+09:00)

BEESAT - Visible Passes

Search period start: 25 January 2022 00:00
Search period end: 04 February 2022 00:00
Orbit: 699 x 708 km, 98.6° (Epoch: 24 January)

Date Brightness Start Highest point End Pass type
(mag) Time Alt. Az. Time Alt. Az. Time Alt. Az.
25 Jan ? 05:32:30 10° E 05:34:43 13° ENE 05:36:56 10° NE visible
26 Jan ? 06:13:08 10° SE 06:17:27 35° ENE 06:21:46 10° N visible
28 Jan ? 06:02:07 10° SE 06:06:05 27° ENE 06:10:04 10° NNE visible
30 Jan ? 05:51:16 10° ESE 05:54:45 21° ENE 05:58:15 10° NNE visible
01 Feb ? 05:40:37 10° ESE 05:43:26 16° ENE 05:46:15 10° NNE visible
03 Feb ? 05:30:24 10° E 05:32:08 12° ENE 05:33:52 10° NE visible
